Time,TemperatureF,DewpointF,PressureIn,WindDirection,WindDirectionDegrees,WindSpeedMPH,WindSpeedGustMPH,Humidity,HourlyPrecipIn,Conditions,Clouds,dailyrainin,SoftwareType,DateUTC
2013-02-16 00:02:00,39.0,30.0,30.12,NNE,18,1.0,0.0,70,0.00,,,0.00,,2013-02-16 06:02:00,
2013-02-16 00:11:00,39.0,30.0,30.12,NNE,18,1.0,0.0,70,0.00,,,0.00,,2013-02-16 06:11:00,
2013-02-16 00:21:00,39.0,30.0,30.11,NW,314,0.0,2.0,70,0.00,,,0.00,,2013-02-16 06:21:00,
2013-02-16 00:32:00,38.0,29.0,30.11,North,359,5.0,5.0,71,0.00,,,0.00,,2013-02-16 06:32:00,
2013-02-16 00:42:00,38.0,29.0,30.11,North,359,5.0,5.0,71,0.00,,,0.00,,2013-02-16 06:42:00,
2013-02-16 00:52:00,38.0,29.0,30.11,NNE,13,0.0,0.0,70,0.00,,,0.00,,2013-02-16 06:52:00,
2013-02-16 01:02:00,38.0,29.0,30.11,NE,45,1.0,0.0,69,0.00,,,0.00,,2013-02-16 07:02:00,
2013-02-16 01:11:00,38.0,29.0,30.11,NE,45,1.0,0.0,69,0.00,,,0.00,,2013-02-16 07:11:00,
2013-02-16 01:21:00,37.0,27.0,30.10,North,349,2.0,0.0,68,0.00,,,0.00,,2013-02-16 07:21:00,
2013-02-16 01:31:00,37.0,27.0,30.10,NNE,15,4.0,0.0,68,0.00,,,0.00,,2013-02-16 07:31:00,
2013-02-16 01:42:00,37.0,27.0,30.10,NNE,15,4.0,0.0,68,0.00,,,0.00,,2013-02-16 07:42:00,
2013-02-16 01:53:00,37.0,27.0,30.10,North,359,7.0,7.0,68,0.00,,,0.00,,2013-02-16 07:53:00,
2013-02-16 02:01:00,36.0,26.0,30.10,North,354,7.0,7.0,68,0.00,,,0.00,,2013-02-16 08:01:00,
2013-02-16 02:11:00,36.0,26.0,30.10,North,354,7.0,7.0,68,0.00,,,0.00,,2013-02-16 08:11:00,
2013-02-16 02:21:00,36.0,26.0,30.09,North,359,2.0,0.0,68,0.00,,,0.00,,2013-02-16 08:21:00,
2013-02-16 02:31:00,35.0,26.0,30.09,North,6,6.0,6.0,68,0.00,,,0.00,,2013-02-16 08:31:00,
2013-02-16 02:41:00,35.0,26.0,30.09,North,6,6.0,6.0,68,0.00,,,0.00,,2013-02-16 08:41:00,
2013-02-16 02:52:00,35.0,26.0,30.09,North,359,7.0,7.0,68,0.00,,,0.00,,2013-02-16 08:52:00,
2013-02-16 03:01:00,35.0,26.0,30.09,North,359,1.0,0.0,69,0.00,,,0.00,,2013-02-16 09:01:00,
2013-02-16 03:11:00,35.0,26.0,30.09,North,359,1.0,0.0,69,0.00,,,0.00,,2013-02-16 09:11:00,
2013-02-16 03:21:00,34.0,26.0,30.10,NNW,335,2.0,6.0,71,0.00,,,0.00,,2013-02-16 09:21:00,
2013-02-16 03:31:00,34.0,26.0,30.09,North,8,0.0,3.0,72,0.00,,,0.00,,2013-02-16 09:31:00,
2013-02-16 03:42:00,34.0,26.0,30.09,North,8,0.0,3.0,72,0.00,,,0.00,,2013-02-16 09:42:00,
2013-02-16 03:52:00,33.0,25.0,30.09,North,354,1.0,0.0,72,0.00,,,0.00,,2013-02-16 09:52:00,
2013-02-16 04:01:00,33.0,25.0,30.09,NE,35,0.0,0.0,72,0.00,,,0.00,,2013-02-16 10:01:00,
2013-02-16 04:11:00,33.0,25.0,30.09,North,359,7.0,0.0,72,0.00,,,0.00,,2013-02-16 10:11:00,
2013-02-16 04:21:00,33.0,25.0,30.09,North,359,7.0,0.0,72,0.00,,,0.00,,2013-02-16 10:21:00,
2013-02-16 04:31:00,32.0,24.0,30.10,NW,323,1.0,6.0,72,0.00,,,0.00,,2013-02-16 10:31:00,
2013-02-16 04:41:00,32.0,24.0,30.10,NW,323,1.0,6.0,72,0.00,,,0.00,,2013-02-16 10:41:00,
2013-02-16 04:52:00,32.0,24.0,30.10,NW,325,5.0,0.0,72,0.00,,,0.00,,2013-02-16 10:52:00,
2013-02-16 05:02:00,32.0,24.0,30.10,North,359,4.0,0.0,72,0.00,,,0.00,,2013-02-16 11:02:00,
2013-02-16 05:11:00,32.0,24.0,30.10,North,359,4.0,0.0,72,0.00,,,0.00,,2013-02-16 11:11:00,
2013-02-16 05:22:00,32.0,24.0,30.10,North,359,4.0,4.0,72,0.00,,,0.00,,2013-02-16 11:22:00,
2013-02-16 05:32:00,31.0,23.0,30.10,North,359,2.0,0.0,73,0.00,,,0.00,,2013-02-16 11:32:00,
2013-02-16 05:42:00,31.0,23.0,30.10,North,359,2.0,0.0,73,0.00,,,0.00,,2013-02-16 11:42:00,
2013-02-16 05:52:00,31.0,24.0,30.10,NNE,15,0.0,0.0,74,0.00,,,0.00,,2013-02-16 11:52:00,
2013-02-16 06:01:00,30.0,23.0,30.10,NNE,17,4.0,0.0,75,0.00,,,0.00,,2013-02-16 12:01:00,
2013-02-16 06:12:00,30.0,23.0,30.10,NNE,17,4.0,0.0,75,0.00,,,0.00,,2013-02-16 12:12:00,
2013-02-16 06:22:00,30.0,23.0,30.10,NNW,345,3.0,0.0,76,0.00,,,0.00,,2013-02-16 12:22:00,
2013-02-16 06:32:00,30.0,23.0,30.11,West,281,0.0,0.0,76,0.00,,,0.00,,2013-02-16 12:32:00,
2013-02-16 06:42:00,30.0,23.0,30.11,West,281,0.0,0.0,76,0.00,,,0.00,,2013-02-16 12:42:00,
2013-02-16 06:52:00,29.0,23.0,30.11,West,281,0.0,0.0,77,0.00,,,0.00,,2013-02-16 12:52:00,
2013-02-16 07:02:00,29.0,23.0,30.12,WNW,298,0.0,0.0,79,0.00,,,0.00,,2013-02-16 13:02:00,
2013-02-16 07:11:00,28.0,23.0,30.12,WNW,302,0.0,0.0,80,0.00,,,0.00,,2013-02-16 13:11:00,
2013-02-16 07:21:00,28.0,23.0,30.12,WNW,302,0.0,0.0,80,0.00,,,0.00,,2013-02-16 13:21:00,
2013-02-16 07:31:00,29.0,24.0,30.12,NW,314,4.0,0.0,80,0.00,,,0.00,,2013-02-16 13:31:00,
2013-02-16 07:41:00,29.0,24.0,30.12,NW,314,4.0,0.0,80,0.00,,,0.00,,2013-02-16 13:41:00,
2013-02-16 07:51:00,31.0,25.0,30.13,NW,308,1.0,0.0,79,0.00,,,0.00,,2013-02-16 13:51:00,
2013-02-16 08:01:00,32.0,25.0,30.12,WNW,301,1.0,0.0,76,0.00,,,0.00,,2013-02-16 14:01:00,
2013-02-16 08:11:00,32.0,25.0,30.12,WNW,301,1.0,0.0,76,0.00,,,0.00,,2013-02-16 14:11:00,
2013-02-16 08:21:00,32.0,25.0,30.13,West,274,5.0,5.0,75,0.00,,,0.00,,2013-02-16 14:21:00,
2013-02-16 08:32:00,35.0,26.0,30.13,North,359,1.0,5.0,68,0.00,,,0.00,,2013-02-16 14:32:00,
2013-02-16 08:41:00,35.0,26.0,30.13,North,359,1.0,5.0,68,0.00,,,0.00,,2013-02-16 14:41:00,
2013-02-16 08:52:00,36.0,25.0,30.13,WNW,290,5.0,7.0,65,0.00,,,0.00,,2013-02-16 14:52:00,
2013-02-16 09:01:00,37.0,26.0,30.13,WNW,285,3.0,7.0,64,0.00,,,0.00,,2013-02-16 15:01:00,
2013-02-16 09:11:00,37.0,26.0,30.13,WNW,285,3.0,7.0,64,0.00,,,0.00,,2013-02-16 15:11:00,
2013-02-16 09:21:00,37.0,26.0,30.13,WNW,285,3.0,7.0,64,0.00,,,0.00,,2013-02-16 15:21:00,
2013-02-16 09:31:00,37.0,26.0,30.13,WNW,285,3.0,7.0,64,0.00,,,0.00,,2013-02-16 15:31:00,
2013-02-16 09:41:00,37.0,26.0,30.13,WNW,285,3.0,7.0,64,0.00,,,0.00,,2013-02-16 15:41:00,
2013-02-16 11:22:00,40.0,22.0,30.14,NW,308,11.0,17.0,49,0.00,,,0.00,,2013-02-16 17:22:00,
2013-02-16 11:32:00,40.0,22.0,30.14,NNW,338,9.0,12.0,48,0.00,,,0.00,,2013-02-16 17:32:00,
2013-02-16 11:42:00,40.0,22.0,30.14,NNW,338,9.0,12.0,48,0.00,,,0.00,,2013-02-16 17:42:00,
2013-02-16 11:52:00,40.0,22.0,30.14,WNW,302,8.0,9.0,49,0.00,,,0.00,,2013-02-16 17:52:00,
2013-02-16 12:02:00,41.0,23.0,30.13,NW,311,12.0,12.0,48,0.00,,,0.00,,2013-02-16 18:02:00,
2013-02-16 12:11:00,41.0,22.0,30.13,NW,323,6.0,0.0,47,0.00,,,0.00,,2013-02-16 18:11:00,
2013-02-16 12:21:00,41.0,22.0,30.13,NW,323,6.0,0.0,47,0.00,,,0.00,,2013-02-16 18:21:00,
2013-02-16 12:33:00,41.0,22.0,30.13,NW,323,6.0,0.0,47,0.00,,,0.00,,2013-02-16 18:33:00,
2013-02-16 12:42:00,41.0,22.0,30.13,NW,323,6.0,0.0,47,0.00,,,0.00,,2013-02-16 18:42:00,
2013-02-16 12:51:00,42.0,22.0,30.11,NW,311,6.0,8.0,45,0.00,,,0.00,,2013-02-16 18:51:00,
2013-02-16 13:02:00,41.0,22.0,30.11,West,262,9.0,9.0,46,0.00,,,0.00,,2013-02-16 19:02:00,
2013-02-16 13:11:00,41.0,22.0,30.10,NW,321,7.0,7.0,47,0.00,,,0.00,,2013-02-16 19:11:00,
2013-02-16 13:21:00,41.0,22.0,30.10,NW,321,7.0,7.0,47,0.00,,,0.00,,2013-02-16 19:21:00,
2013-02-16 13:31:00,40.0,21.0,30.10,NNW,328,3.0,0.0,47,0.00,,,0.00,,2013-02-16 19:31:00,
2013-02-16 13:42:00,40.0,21.0,30.10,NNW,328,3.0,0.0,47,0.00,,,0.00,,2013-02-16 19:42:00,
2013-02-16 13:52:00,40.0,21.0,30.10,NW,312,8.0,10.0,47,0.00,,,0.00,,2013-02-16 19:52:00,
2013-02-16 14:01:00,41.0,21.0,30.10,West,281,6.0,6.0,45,0.00,,,0.00,,2013-02-16 20:01:00,
2013-02-16 14:11:00,42.0,23.0,30.10,West,266,8.0,8.0,46,0.00,,,0.00,,2013-02-16 20:11:00,
2013-02-16 14:21:00,42.0,23.0,30.10,West,266,8.0,8.0,46,0.00,,,0.00,,2013-02-16 20:21:00,
2013-02-16 14:32:00,41.0,22.0,30.10,NNE,14,6.0,6.0,47,0.00,,,0.00,,2013-02-16 20:32:00,
2013-02-16 14:42:00,41.0,23.0,30.10,WNW,284,3.0,6.0,48,0.00,,,0.00,,2013-02-16 20:42:00,
2013-02-16 14:52:00,41.0,23.0,30.10,WNW,284,3.0,6.0,48,0.00,,,0.00,,2013-02-16 20:52:00,
2013-02-16 15:02:00,40.0,23.0,30.10,NNW,338,6.0,6.0,50,0.00,,,0.00,,2013-02-16 21:02:00,
2013-02-16 15:11:00,40.0,23.0,30.10,NNW,338,6.0,6.0,50,0.00,,,0.00,,2013-02-16 21:11:00,
2013-02-16 15:21:00,40.0,23.0,30.10,NNW,328,4.0,10.0,50,0.00,,,0.00,,2013-02-16 21:21:00,
2013-02-16 15:31:00,39.0,24.0,30.11,WNW,298,6.0,6.0,54,0.00,,,0.00,,2013-02-16 21:31:00,
2013-02-16 15:41:00,39.0,24.0,30.11,WNW,298,6.0,6.0,54,0.00,,,0.00,,2013-02-16 21:41:00,
2013-02-16 15:52:00,39.0,25.0,30.11,NW,304,1.0,2.0,56,0.00,,,0.00,,2013-02-16 21:52:00,
2013-02-16 16:01:00,39.0,24.0,30.11,NW,314,2.0,0.0,55,0.00,,,0.00,,2013-02-16 22:01:00,
2013-02-16 16:11:00,39.0,24.0,30.11,NW,314,2.0,0.0,55,0.00,,,0.00,,2013-02-16 22:11:00,
2013-02-16 16:21:00,38.0,24.0,30.12,West,269,6.0,6.0,56,0.00,,,0.00,,2013-02-16 22:21:00,
2013-02-16 16:32:00,38.0,23.0,30.12,WSW,256,7.0,7.0,55,0.00,,,0.00,,2013-02-16 22:32:00,
2013-02-16 16:42:00,38.0,23.0,30.12,WSW,256,7.0,7.0,55,0.00,,,0.00,,2013-02-16 22:42:00,
2013-02-16 16:52:00,37.0,23.0,30.12,NNW,328,2.0,0.0,56,0.00,,,0.00,,2013-02-16 22:52:00,
2013-02-16 17:02:00,37.0,23.0,30.12,NW,325,9.0,9.0,56,0.00,,,0.00,,2013-02-16 23:02:00,
2013-02-16 17:11:00,37.0,23.0,30.12,West,270,0.0,0.0,57,0.00,,,0.00,,2013-02-16 23:11:00,
2013-02-16 17:21:00,37.0,23.0,30.12,West,270,0.0,0.0,57,0.00,,,0.00,,2013-02-16 23:21:00,
2013-02-16 17:31:00,37.0,24.0,30.13,NW,304,0.0,0.0,58,0.00,,,0.00,,2013-02-16 23:31:00,
2013-02-16 17:42:00,37.0,24.0,30.13,NW,304,0.0,0.0,58,0.00,,,0.00,,2013-02-16 23:42:00,
2013-02-16 17:52:00,36.0,23.0,30.13,NW,314,0.0,5.0,58,0.00,,,0.00,,2013-02-16 23:52:00,
2013-02-16 18:02:00,36.0,22.0,30.13,NW,309,3.0,0.0,56,0.00,,,0.00,,2013-02-17 00:02:00,
2013-02-16 18:12:00,36.0,22.0,30.13,NW,309,3.0,0.0,56,0.00,,,0.00,,2013-02-17 00:12:00,
2013-02-16 18:21:00,35.0,20.0,30.14,NNW,343,4.0,0.0,54,0.00,,,0.00,,2013-02-17 00:21:00,
2013-02-16 18:31:00,35.0,20.0,30.14,WNW,301,5.0,6.0,54,0.00,,,0.00,,2013-02-17 00:31:00,
2013-02-16 18:41:00,35.0,20.0,30.14,WNW,301,5.0,6.0,54,0.00,,,0.00,,2013-02-17 00:41:00,
2013-02-16 18:52:00,35.0,19.0,30.15,NW,307,1.0,0.0,52,0.00,,,0.00,,2013-02-17 00:52:00,
2013-02-16 19:01:00,34.0,18.0,30.16,NW,322,5.0,5.0,52,0.00,,,0.00,,2013-02-17 01:01:00,
2013-02-16 19:11:00,34.0,18.0,30.16,NW,322,5.0,5.0,52,0.00,,,0.00,,2013-02-17 01:11:00,
2013-02-16 19:21:00,34.0,19.0,30.16,NNW,338,1.0,0.0,53,0.00,,,0.00,,2013-02-17 01:21:00,
2013-02-16 19:31:00,33.0,18.0,30.17,NW,321,0.0,0.0,54,0.00,,,0.00,,2013-02-17 01:31:00,
2013-02-16 19:41:00,33.0,18.0,30.17,NW,321,0.0,0.0,54,0.00,,,0.00,,2013-02-17 01:41:00,
2013-02-16 19:52:00,33.0,19.0,30.17,NW,321,0.0,0.0,55,0.00,,,0.00,,2013-02-17 01:52:00,
2013-02-16 20:01:00,32.0,18.0,30.18,NW,321,0.0,0.0,56,0.00,,,0.00,,2013-02-17 02:01:00,
2013-02-16 20:11:00,32.0,18.0,30.18,NW,321,0.0,0.0,56,0.00,,,0.00,,2013-02-17 02:11:00,
2013-02-16 20:21:00,32.0,19.0,30.18,NW,321,0.0,0.0,57,0.00,,,0.00,,2013-02-17 02:21:00,
2013-02-16 20:31:00,31.0,18.0,30.18,NW,321,0.0,0.0,57,0.00,,,0.00,,2013-02-17 02:31:00,
2013-02-16 20:41:00,31.0,18.0,30.18,NW,321,0.0,0.0,57,0.00,,,0.00,,2013-02-17 02:41:00,
2013-02-16 20:52:00,30.0,17.0,30.19,NW,321,0.0,0.0,59,0.00,,,0.00,,2013-02-17 02:52:00,
2013-02-16 21:01:00,30.0,17.0,30.19,NW,321,0.0,0.0,59,0.00,,,0.00,,2013-02-17 03:01:00,
2013-02-16 21:11:00,30.0,18.0,30.20,NW,321,0.0,0.0,60,0.00,,,0.00,,2013-02-17 03:11:00,
2013-02-16 21:21:00,30.0,18.0,30.20,NW,321,0.0,0.0,60,0.00,,,0.00,,2013-02-17 03:21:00,
2013-02-16 21:31:00,29.0,17.0,30.20,NW,321,0.0,0.0,60,0.00,,,0.00,,2013-02-17 03:31:00,
2013-02-16 21:42:00,29.0,17.0,30.20,NW,321,0.0,0.0,60,0.00,,,0.00,,2013-02-17 03:42:00,
2013-02-16 21:52:00,29.0,17.0,30.20,NW,321,0.0,0.0,61,0.00,,,0.00,,2013-02-17 03:52:00,
2013-02-16 22:01:00,29.0,18.0,30.20,NW,314,0.0,0.0,62,0.00,,,0.00,,2013-02-17 04:01:00,
2013-02-16 22:11:00,29.0,18.0,30.21,NW,314,0.0,0.0,62,0.00,,,0.00,,2013-02-17 04:11:00,
2013-02-16 22:21:00,29.0,18.0,30.21,NW,314,0.0,0.0,62,0.00,,,0.00,,2013-02-17 04:21:00,
2013-02-16 22:31:00,29.0,18.0,30.20,NW,314,0.0,0.0,62,0.00,,,0.00,,2013-02-17 04:31:00,
2013-02-16 22:41:00,29.0,18.0,30.20,NW,314,0.0,0.0,62,0.00,,,0.00,,2013-02-17 04:41:00,
2013-02-16 22:52:00,28.0,17.0,30.20,NW,314,0.0,0.0,63,0.00,,,0.00,,2013-02-17 04:52:00,
2013-02-16 23:01:00,28.0,17.0,30.20,NNW,332,0.0,0.0,64,0.00,,,0.00,,2013-02-17 05:01:00,
2013-02-16 23:12:00,27.0,16.0,30.20,NNW,332,0.0,0.0,64,0.00,,,0.00,,2013-02-17 05:12:00,
2013-02-16 23:22:00,27.0,16.0,30.20,NNW,332,0.0,0.0,64,0.00,,,0.00,,2013-02-17 05:22:00,
2013-02-16 23:32:00,27.0,17.0,30.21,NNW,332,0.0,0.0,65,0.00,,,0.00,,2013-02-17 05:32:00,
2013-02-16 23:42:00,27.0,17.0,30.21,NNW,332,0.0,0.0,65,0.00,,,0.00,,2013-02-17 05:42:00,
2013-02-16 23:52:00,26.0,16.0,30.21,NNW,332,0.0,0.0,65,0.00,,,0.00,,2013-02-17 05:52:00,